Погода в Пивденном

Украина / Харьковская область     49°52′35″N   36°03′51″E
В апреле 2022 года жителям России запретили посещать сайт meteo.paraplan.net по решению Генеральной прокуратуры. Аудитория сайта уменьшилась в 10 раз. Владельцы сайта не видят смысла в поддержке погодного сервера в таких условиях. Сайт будет закрыт в октябре.
темп.,
°C
ветер,
м/с
пор.,
м/с
влажн.,
%
обл.,
%
осадки,
мм/ч
давл.,
гПа
погр.,
м
29 сентября, чт
чт2900:00+12зсз11885 0.0 100512
03:00+11юз12905 0.0 100713
06:00+11з229348 0.0 100844
09:00+13з1182100 0.0 1010106
12:00+16ююв117038 0.0 1011364
15:00+20ююз345599 0.0 10111339
18:00+17вюв2268100 0.0 101232
21:00+15юв3473100 0.0 101368
30 сентября, пт
пт3000:00+14юв3376100 0.0 101354
03:00+15ююв3772100 0.0 1014154
06:00+15ююв3770100 0.1 1014163
09:00+18ююв496499 0.1 1015319
12:00+22ю694799 0.0 10151001
15:00+19юз3778100 1.0 1016366
18:00+17юв2285100 0.8 101654
21:00+16ююв2392100 0.8 101754
1 октября, сб
сб100:00+15ююз2393100 0.0 101654
03:00+14зюз249638 0.0 1017103
06:00+14з1196100 0.0 101811
09:00+17ююз118387 0.0 1018165
12:00+21юз2363100 0.0 1018744
15:00+23юз344974 0.0 10161187
18:00+20ююз3565100 0.0 1016103
21:00+18ююз347194 0.0 101570
2 октября, вс
вс200:00+17ю367497 0.0 1014116
03:00+16ююз228111 0.2 101340
06:00+15ююз2282100 0.0 101219
09:00+18ю2371100 0.0 1012151
12:00+22ююв4558100 0.2 1010539
15:00+24ююв464677 0.2 10081446
18:00+20вюв4965100 0.8 1006190
21:00+19юв51167100 2.8 1005284
3 октября, пн
пн300:00+18ююз2472100 0.1 1004130
03:00+17юв3777100 0.1 1002198
06:00+16юв61488100 0.6 995716
09:00+16юв71484100 3.8 9931003
12:00+15ю71386100 0.8 9911188
15:00+11юз111684100 0.9 9941342
18:00+10юз91583100 0.3 10011542
21:00+11юз9148080 1.1 10041177